date,time,DOY,Ta_1_1_1,Pa_1_1_1,RH_1_1_1,LWin_1_1_1,LWout_1_1_1,SWin_1_1_1,SWout_1_1_1,PPFD_1_1_1,MWS_1_1_1,WD_1_1_1,SWC_1_1_1,Ts_1_1_1
[yyyy-mm-dd],[HH:MM],[ddd.ddd],[K],[Pa],[%],[W+1m-2],[W+1m-2],[W+1m-2],[W+1m-2],[µmol+1m-2s-1],[m+1s-1],[deg],[m+3m-3],[K]
2018-03-08,00:30,67.020,263.04433333333344,94577.266666666663,66.980333333333334,271.63966666666664,242.66599999999997,0.42899999999999994,-1.0796666666666668,0.57699999999999974,4.0233333333333334,298.88933333333335,0.24000000000000016,273.21933333333340
2018-03-08,01:00,67.041,262.79766666666671,94587.699999999997,67.658666666666662,266.86333333333340,210.71333333333325,0.97033333333333316,-3.0806666666666658,-1.66666666666666677E-003,2.8366666666666664,301.23366666666669,0.24000000000000016,273.21833333333336
2018-03-08,01:30,67.062,262.34233333333333,94602.000000000000,69.602666666666664,266.23366666666669,218.10233333333326,0.84800000000000031,-2.3753333333333333,-9.00000000000000105E-003,3.3799999999999999,311.74466666666666,0.24000000000000016,273.21899999999999
2018-03-08,02:00,67.083,261.90799999999984,94605.733333333337,72.224333333333334,265.58566666666667,228.93699999999998,0.64133333333333309,-1.9076666666666668,-1.00000000000000002E-003,3.2633333333333323,314.37799999999999,0.24000000000000016,273.21766666666667
2018-03-08,02:30,67.104,261.81533333333323,94620.000000000000,73.856666666666655,267.65333333333331,256.57666666666665,0.42733333333333323,-0.44199999999999995,3.00000000000000006E-003,2.9866666666666664,299.99933333333331,0.24000000000000016,273.21766666666662
2018-03-08,03:00,67.124,261.92233333333337,94619.466666666660,75.020999999999987,268.36633333333339,257.00500000000000,0.32799999999999996,-0.43200000000000011,6.66666666666666753E-004,3.2400000000000007,276.10066666666665,0.24000000000000016,273.22199999999998
2018-03-08,03:30,67.145,262.05766666666682,94604.800000000003,76.894666666666666,268.09133333333335,246.75066666666669,0.40366666666666651,-0.88500000000000012,-5.00000000000000010E-003,3.9033333333333338,279.28933333333333,0.24000000000000016,273.22033333333337
2018-03-08,04:00,67.166,261.98566666666670,94587.133333333331,78.510333333333307,265.50799999999998,221.35033333333334,0.60599999999999998,-1.9906666666666666,-3.33333333333333160E-004,3.6633333333333331,273.50100000000003,0.24000000000000016,273.21833333333336
2018-03-08,04:30,67.187,261.83566666666673,94571.333333333328,79.780333333333331,263.61799999999999,213.72133333333335,0.70033333333333336,-2.2140000000000004,3.00000000000000006E-003,3.7966666666666664,275.01100000000002,0.24000000000000016,273.21899999999994
2018-03-08,05:00,67.208,261.77900000000005,94569.800000000003,80.564333333333309,264.93933333333337,231.06600000000000,0.51533333333333331,-1.4773333333333334,-5.00000000000000010E-003,3.9466666666666663,274.61166666666668,0.24000000000000016,273.22266666666667
2018-03-08,05:30,67.229,262.19666666666660,94558.433333333334,80.695666666666682,268.32399999999996,254.43400000000000,0.44833333333333347,-0.45466666666666683,-9.00000000000000105E-003,3.9699999999999993,285.13366666666667,0.24000000000000016,273.21666666666664
2018-03-08,06:00,67.249,262.63233333333324,94530.333333333328,80.263666666666666,268.77366666666666,239.89699999999999,0.49866666666666670,-1.4680000000000004,-5.66666666666666621E-003,4.5733333333333333,289.26666666666665,0.24000000000000016,273.21600000000001
2018-03-08,06:30,67.270,262.71799999999990,94521.333333333328,80.475000000000009,270.65066666666672,260.14800000000002,0.34333333333333332,-0.47299999999999992,-4.00000000000000008E-003,3.7433333333333327,285.14466666666669,0.24000000000000016,273.22100000000006
2018-03-08,07:00,67.291,263.30766666666671,94511.633333333331,80.988000000000000,273.36033333333336,267.11066666666659,0.32033333333333330,-0.18766666666666670,1.00000000000000002E-003,4.0733333333333333,286.37766666666664,0.24000000000000016,273.21866666666671
2018-03-08,07:30,67.312,263.50333333333350,94494.533333333340,81.309333333333342,274.42766666666665,268.98933333333332,0.18666666666666670,-0.24400000000000002,9.66666666666666716E-003,4.1833333333333336,286.24466666666666,0.24000000000000016,273.22000000000003
2018-03-08,08:00,67.333,263.78133333333329,94492.366666666669,81.753999999999991,275.71233333333328,272.19400000000002,0.16199999999999998,-2.76666666666666831E-002,-9.00000000000000105E-003,3.7933333333333343,280.89900000000000,0.24000000000000016,273.21733333333333
2018-03-08,08:30,67.354,263.99433333333343,94481.033333333340,82.482333333333330,276.68133333333333,274.06733333333329,0.11766666666666671,-8.00000000000000190E-003,-1.00000000000000002E-003,3.5799999999999996,284.57833333333332,0.24000000000000016,273.21600000000001
2018-03-08,09:00,67.374,264.29566666666659,94485.766666666663,82.372000000000000,277.76766666666668,275.17100000000005,0.14633333333333334,-4.13333333333333400E-002,2.00000000000000004E-003,3.7933333333333334,276.32166666666666,0.24000000000000016,273.21666666666664
2018-03-08,09:30,67.395,264.60800000000000,94498.433333333334,81.578000000000017,278.96866666666671,276.20033333333333,0.19466666666666671,-6.33333333333333526E-002,-4.00000000000000008E-003,4.0433333333333339,286.35499999999996,0.24000000000000016,273.22066666666672
2018-03-08,10:00,67.416,265.05999999999995,94497.300000000003,80.487333333333325,280.56199999999995,277.60700000000003,0.29833333333333339,-0.13466666666666666,-3.00000000000000006E-003,4.9566666666666661,294.30000000000001,0.24000000000000016,273.21900000000005
2018-03-08,10:30,67.437,265.15999999999991,94500.866666666669,80.858000000000004,281.00599999999997,277.87433333333331,0.19166666666666668,-0.35399999999999998,-3.66666666666666703E-003,5.0266666666666664,298.39933333333335,0.24000000000000016,273.22233333333332
2018-03-08,11:00,67.458,265.10000000000019,94523.800000000003,80.260999999999996,280.70866666666660,277.38966666666670,0.25000000000000006,-0.41200000000000003,-2.00000000000000004E-003,4.8566666666666674,292.49966666666666,0.24000000000000016,273.22166666666669
2018-03-08,11:30,67.479,265.07200000000006,94538.333333333328,78.111666666666679,280.35266666666666,276.31800000000004,0.50599999999999989,-0.57399999999999995,-4.33333333333333227E-003,5.3000000000000007,297.33366666666666,0.24000000000000016,273.22133333333346
2018-03-08,12:00,67.499,265.06000000000017,94546.899999999994,79.792333333333332,280.41033333333331,275.68299999999999,0.38299999999999984,-0.49099999999999999,3.06666666666666650E-002,4.6399999999999997,297.04366666666664,0.24000000000000016,273.22000000000003
2018-03-08,12:30,67.520,265.01333333333343,94551.366666666669,80.744333333333344,280.36033333333330,274.82800000000003,0.55966666666666676,0.78433333333333333,2.8473333333333328,4.8466666666666658,298.22300000000001,0.24000000000000016,273.21600000000007
2018-03-08,13:00,67.541,264.98133333333334,94553.800000000003,81.013666666666666,280.20600000000002,271.77766666666668,3.4186666666666663,14.258333333333333,31.044666666666668,4.4933333333333341,294.86733333333336,0.24000000000000016,273.21533333333332
2018-03-08,13:30,67.562,264.81766666666681,94546.800000000003,81.285333333333341,279.69066666666663,268.49766666666670,8.7290000000000010,39.076333333333331,83.262999999999991,4.4800000000000004,298.37766666666664,0.24000000000000016,273.21833333333336
2018-03-08,14:00,67.583,264.84033333333332,94557.266666666663,81.270666666666685,281.23700000000002,276.93299999999999,15.266666666666667,66.588666666666668,136.71566666666666,4.5433333333333330,288.04366666666664,0.24000000000000016,273.21533333333343
2018-03-08,14:30,67.604,265.15900000000005,94558.233333333337,80.025333333333307,283.45499999999998,272.12000000000000,33.622333333333330,159.84166666666667,308.61800000000005,5.2433333333333350,289.93333333333334,0.24000000000000016,273.21666666666675
2018-03-08,15:00,67.624,265.48333333333352,94561.600000000006,77.418666666666667,285.54366666666664,276.02266666666674,38.550333333333342,176.14499999999998,353.76899999999989,5.5533333333333328,290.40100000000001,0.24000000000000016,273.21900000000005
2018-03-08,15:30,67.645,265.83433333333335,94567.133333333331,74.948000000000022,287.22400000000005,276.48066666666665,41.339000000000006,190.27466666666669,388.12066666666664,5.2166666666666668,293.75533333333334,0.24000000000000016,273.22300000000007
2018-03-08,16:00,67.666,266.17533333333330,94572.233333333337,71.212000000000003,288.82733333333334,278.03966666666662,47.609333333333332,220.83566666666658,451.51733333333323,6.2500000000000009,311.71066666666667,0.24000000000000016,273.21500000000003
2018-03-08,16:30,67.687,266.65466666666669,94571.000000000000,67.412333333333336,291.38700000000006,279.16133333333329,54.266000000000012,256.85000000000002,517.97733333333338,5.5599999999999996,315.66633333333334,0.24000000000000016,273.21766666666673
2018-03-08,17:00,67.708,266.97633333333346,94561.500000000000,63.902000000000001,293.25266666666658,278.79799999999994,61.880333333333319,298.38500000000005,602.59833333333336,6.1066666666666665,310.65533333333332,0.24000000000000016,273.21899999999994
2018-03-08,17:30,67.729,267.44900000000001,94547.066666666666,59.821333333333328,296.96700000000004,270.31733333333335,85.526666666666642,424.70566666666656,847.84600000000000,6.0700000000000012,313.35533333333331,0.24000000000000016,273.21500000000003
2018-03-08,18:00,67.749,267.83433333333329,94539.600000000006,58.573999999999998,299.30766666666665,278.88633333333343,76.845333333333329,382.39133333333331,758.30533333333335,4.8266666666666671,288.58900000000000,0.24000000000000016,273.22000000000003
2018-03-08,18:30,67.770,268.15233333333339,94523.566666666666,57.195666666666661,299.47300000000001,282.36266666666666,68.760000000000005,335.29800000000000,675.19000000000028,5.2933333333333321,277.16700000000003,0.24000000000000016,273.22100000000006
2018-03-08,19:00,67.791,268.06033333333340,94510.133333333331,56.921333333333330,298.50666666666660,280.92333333333323,65.531999999999996,317.73033333333325,643.97666666666657,5.5600000000000005,283.83299999999997,0.24000000000000016,273.21533333333343
2018-03-08,19:30,67.812,268.24966666666671,94499.766666666663,55.085999999999999,299.78300000000002,281.99366666666663,67.368999999999986,327.69166666666672,661.52433333333317,5.0300000000000002,289.78933333333333,0.24000000000000016,273.22033333333343
2018-03-08,20:00,67.833,268.26166666666671,94493.533333333340,54.727666666666671,300.05399999999997,281.83800000000002,68.635666666666651,335.26766666666674,676.20200000000000,5.1766666666666667,279.36633333333333,0.24000000000000016,273.21733333333339
2018-03-08,20:30,67.854,268.26800000000009,94481.433333333334,55.101000000000006,299.33799999999991,280.20966666666669,57.910666666666650,285.98800000000006,571.26100000000008,5.1266666666666678,289.20033333333333,0.24000000000000016,273.21833333333331
2018-03-08,21:00,67.874,268.07300000000004,94485.899999999994,57.202333333333328,297.64100000000002,280.10566666666665,44.904333333333334,220.23533333333333,444.06299999999987,4.5266666666666673,274.95600000000002,0.24000000000000016,273.21200000000005
2018-03-08,21:30,67.895,268.04666666666674,94487.333333333328,56.070333333333330,296.70533333333333,279.34666666666669,37.542000000000009,183.01966666666664,367.03700000000003,4.9033333333333324,281.64500000000004,0.24000000000000016,273.22066666666672
2018-03-08,22:00,67.916,268.04100000000005,94489.033333333340,55.044666666666664,296.04633333333339,271.67466666666667,33.940000000000005,168.29866666666666,334.29900000000004,3.9200000000000004,277.25533333333334,0.24000000000000016,273.21600000000001
2018-03-08,22:30,67.937,267.94200000000001,94490.766666666663,54.017000000000003,291.46633333333335,234.20266666666666,16.763999999999999,88.884000000000015,191.93533333333335,3.7666666666666675,298.76599999999996,0.24000000000000016,273.22133333333329
2018-03-08,23:00,67.958,267.79200000000014,94502.866666666669,54.825333333333333,289.04566666666670,231.81933333333333,11.646999999999998,57.463999999999992,129.26200000000000,3.0799999999999996,310.36633333333333,0.24000000000000016,273.21766666666667
2018-03-08,23:30,67.979,267.73099999999999,94510.199999999997,55.061666666666660,288.39399999999995,234.78866666666667,7.8993333333333320,35.601333333333329,79.359333333333325,3.0900000000000012,300.71166666666670,0.24000000000000016,273.22099999999995
2018-03-09,00:00,68.000,267.55033333333347,94519.666666666672,55.468333333333320,287.28233333333333,243.59566666666669,3.3236666666666661,9.9896666666666629,23.573999999999998,2.7299999999999995,301.21133333333336,0.24000000000000016,273.21333333333337
